Weather reports worldwide

Advertisment
Holbeach, United Kingdom (3469): temperature & dewpoint: 19.06.2018 16:00:00 - 25.06.2018 16:00:00 (BST)Holbeach, United Kingdom (3469): temperature -20cm & temperature -100cm: 19.06.2018 16:00:00 - 25.06.2018 16:00:00 (BST)Holbeach, United Kingdom (3469): wind speed & gusts: 19.06.2018 16:00:00 - 25.06.2018 16:00:00 (BST)Holbeach, United Kingdom (3469): wind direction: 19.06.2018 16:00:00 - 25.06.2018 16:00:00 (BST)Holbeach, United Kingdom (3469): reduced air pressure: 19.06.2018 16:00:00 - 25.06.2018 16:00:00 (BST)Holbeach, United Kingdom (3469): visibility: 19.06.2018 16:00:00 - 25.06.2018 16:00:00 (BST)Holbeach, United Kingdom (3469): precipitation: 19.06.2018 16:00:00 - 25.06.2018 16:00:00 (BST)
Date & Time tt [°C] td [°C] tt -20cm [°C] tt -100cm [°C] ff [km/h] ff [kn] fx [km/h] fx [kn] dd ppp [hPa] vv [km] rr [mm]
25.06.2018 16:00:00 21,2 10,9 - - 24 13 - - E 1026,7 10 0,0
25.06.2018 15:00:00 21,3 11,1 - - 26 14 - - ENE 1026,7 10 0,0
25.06.2018 14:00:00 20,8 12,7 - - 31 17 - - ENE 1026,7 10 0,0
25.06.2018 13:00:00 20,5 13,0 - - 29 16 - - ENE 1026,5 10 0,0
25.06.2018 12:00:00 21,3 13,4 - - 24 13 - - ENE 1026,5 27 0,0
25.06.2018 11:00:00 23,3 14,5 - - 15 8 - - ENE 1026,0 10 0,0
25.06.2018 10:00:00 21,6 12,2 16,2 14,4 13 7 - - WNW 1025,8 10 0,0
25.06.2018 09:00:00 18,9 12,5 - - 11 6 - - NW 1025,8 10 0,0
25.06.2018 08:00:00 16,8 12,4 - - 9 5 - - NW 1025,5 26 0,0
25.06.2018 07:00:00 14,5 12,4 - - 8 4 - - WSW 1025,3 27 0,0
25.06.2018 06:00:00 11,8 10,8 - - 9 5 - - SW 1025,3 18 0,0
25.06.2018 05:00:00 11,1 9,8 - - 11 6 - - SW 1025,2 21 0,0
25.06.2018 04:00:00 11,9 10,3 - - 15 8 - - SSW 1025,0 21 0,0
25.06.2018 03:00:00 11,9 10,3 - - 13 7 - - SSW 1025,2 30 0,0
25.06.2018 02:00:00 12,9 10,9 - - 13 7 - - SSW 1025,4 28 0,0
25.06.2018 01:00:00 14,3 11,2 - - 11 6 - - S 1025,5 50 0,0
25.06.2018 00:00:00 15,1 10,6 - - 11 6 - - S 1025,5 50 0,0
24.06.2018 23:00:00 16,0 11,1 - - 11 6 - - SSE 1025,4 50 0,0
24.06.2018 22:00:00 15,6 13,4 - - 15 8 - - ESE 1025,2 50 0,0
24.06.2018 21:00:00 17,9 13,8 - - 11 6 - - E 1024,7 35 0,0
24.06.2018 20:00:00 19,7 13,4 - - 13 7 - - E 1024,6 35 0,0
24.06.2018 19:00:00 20,7 11,9 - - 13 7 - - E 1024,7 50 0,0
24.06.2018 18:00:00 21,3 11,4 - - 16 9 - - E 1024,8 45 0,0
24.06.2018 17:00:00 21,1 10,6 - - 16 9 - - E 1025,2 40 0,0
24.06.2018 16:00:00 21,4 9,8 - - 13 7 - - E 1025,5 50 0,0
24.06.2018 15:00:00 21,7 8,5 - - 13 7 - - E 1025,6 30 0,0
24.06.2018 14:00:00 21,0 8,9 - - 13 7 - - E 1025,8 30 0,0
24.06.2018 13:00:00 20,8 8,5 - - 9 5 - - ENE 1026,1 40 0,0
24.06.2018 12:00:00 18,9 9,1 - - 11 6 - - NE 1026,3 25 0,0
24.06.2018 11:00:00 18,5 9,6 - - 9 5 - - NE 1026,3 45 0,0
24.06.2018 10:00:00 17,9 9,3 15,7 14,4 8 4 - - NNE 1026,4 30 0,0
24.06.2018 09:00:00 16,7 10,3 - - 5 3 - - W 1026,3 45 0,0
24.06.2018 08:00:00 14,2 10,0 - - 5 3 - - NW 1026,3 45 0,0
24.06.2018 07:00:00 12,2 11,8 - - 8 4 - - NNW 1026,0 16 0,0
24.06.2018 06:00:00 9,0 8,7 - - 8 4 - - NW 1025,9 13 0,0
24.06.2018 05:00:00 7,6 7,0 - - 8 4 - - NW 1025,5 10 0,0
24.06.2018 04:00:00 8,1 7,6 - - 8 4 - - WNW 1025,5 22 0,0
24.06.2018 03:00:00 7,9 7,0 - - 5 3 - - S 1025,8 26 0,0
24.06.2018 02:00:00 9,0 8,2 - - 5 3 - - S 1025,9 30 0,0
24.06.2018 01:00:00 9,7 8,8 - - 9 5 - - ESE 1026,2 40 0,0
24.06.2018 00:00:00 10,5 9,3 - - 13 7 - - E 1026,6 30 0,0
23.06.2018 23:00:00 11,7 9,9 - - 11 6 - - E 1026,4 35 0,0
23.06.2018 22:00:00 13,6 11,1 - - 13 7 - - ENE 1026,4 45 0,0
23.06.2018 21:00:00 14,7 11,1 - - 13 7 - - ENE 1026,1 30 0,0
23.06.2018 20:00:00 15,8 10,3 - - 13 7 - - ENE 1025,8 50 0,0
23.06.2018 19:00:00 16,2 10,0 - - 15 8 - - ENE 1026,0 50 0,0
23.06.2018 18:00:00 17,0 9,8 - - 16 9 - - ENE 1026,2 50 0,0
23.06.2018 17:00:00 16,7 10,0 - - 18 10 - - ENE 1026,5 45 0,0
23.06.2018 16:00:00 16,6 11,3 - - 24 13 - - ENE 1026,9 24 0,0
23.06.2018 15:00:00 16,4 11,4 - - 22 12 - - ENE 1027,2 25 0,0
23.06.2018 14:00:00 20,7 6,0 - - 21 11 - - NNW 1027,2 50 0,0
23.06.2018 13:00:00 19,8 7,7 - - 15 8 - - WNW 1027,6 50 0,0
23.06.2018 12:00:00 18,2 7,2 - - 18 10 - - W 1028,0 45 0,0
23.06.2018 11:00:00 18,8 11,0 - - 13 7 - - W 1028,2 40 0,0
23.06.2018 10:00:00 16,3 10,7 15,7 14,4 11 6 - - WNW 1028,3 21 0,0
23.06.2018 09:00:00 15,2 9,7 - - 11 6 - - NW 1028,5 30 0,0
23.06.2018 08:00:00 13,8 8,6 - - 15 8 - - WNW 1028,4 45 0,0
23.06.2018 07:00:00 11,3 7,3 - - 13 7 - - W 1028,4 40 0,0
23.06.2018 06:00:00 9,0 6,8 - - 9 5 - - W 1028,3 30 0,0
23.06.2018 05:00:00 7,7 6,0 - - 11 6 - - W 1028,6 35 0,0
23.06.2018 04:00:00 7,9 6,1 - - 9 5 - - W 1028,7 28 0,0
23.06.2018 03:00:00 8,1 6,0 - - 9 5 - - WSW 1028,9 30 0,0
23.06.2018 02:00:00 10,0 6,5 - - 11 6 - - S 1028,8 35 0,0
23.06.2018 01:00:00 10,6 6,4 - - 11 6 - - SSE 1029,4 35 0,0
23.06.2018 00:00:00 10,3 9,1 - - 8 4 - - E 1029,9 35 0,0
22.06.2018 23:00:00 10,3 7,5 - - 9 5 - - ESE 1029,8 45 0,0
22.06.2018 22:00:00 10,6 6,3 - - 11 6 - - ESE 1029,9 45 0,0
22.06.2018 21:00:00 14,5 5,6 - - 8 4 - - SSE 1029,5 40 0,0
22.06.2018 20:00:00 15,4 6,4 - - 11 6 - - SE 1029,8 30 0,0
22.06.2018 19:00:00 15,1 5,4 - - 15 8 - - E 1030,3 40 0,0
22.06.2018 18:00:00 14,7 8,0 - - 22 12 - - E 1030,5 30 0,0
22.06.2018 17:00:00 15,6 7,2 - - 22 12 - - ENE 1030,9 40 0,0
22.06.2018 16:00:00 16,0 6,4 - - 24 13 - - ENE 1031,0 30 0,0
22.06.2018 15:00:00 17,0 5,8 - - 26 14 - - ENE 1030,8 30 0,0
22.06.2018 14:00:00 16,9 6,9 - - 29 16 - - ENE 1030,9 23 0,0
22.06.2018 13:00:00 17,1 7,9 - - 26 14 - - ENE 1031,0 28 0,0
22.06.2018 12:00:00 17,6 6,5 - - 16 9 - - NE 1031,1 35 0,0
22.06.2018 11:00:00 16,7 5,7 - - 15 8 - - N 1031,0 35 0,0
22.06.2018 10:00:00 15,2 6,3 15,7 14,2 11 6 - - NNW 1031,0 30 0,0
22.06.2018 09:00:00 14,4 6,4 - - 21 11 - - N 1030,8 35 0,0
22.06.2018 08:00:00 12,9 7,1 - - 22 12 - - N 1030,4 22 0,0
22.06.2018 07:00:00 11,4 7,6 - - 22 12 - - NNW 1030,0 23 0,0
22.06.2018 06:00:00 9,3 7,3 - - 16 9 - - NW 1029,5 30 0,0
22.06.2018 05:00:00 8,6 7,0 - - 18 10 - - WNW 1029,1 23 0,0
22.06.2018 04:00:00 9,0 6,9 - - 18 10 - - NW 1029,0 28 0,0
22.06.2018 03:00:00 9,3 6,9 - - 16 9 - - W 1028,8 35 0,0
22.06.2018 02:00:00 9,2 6,2 - - 16 9 - - NW 1028,5 28 0,0
22.06.2018 01:00:00 10,0 6,8 - - 13 7 - - W 1028,7 40 0,0
22.06.2018 00:00:00 7,8 6,0 - - 11 6 - - WSW 1028,9 30 0,0
21.06.2018 23:00:00 10,1 7,0 - - 5 3 - - W 1028,9 50 0,0
21.06.2018 22:00:00 10,4 6,8 - - 4 2 - - E 1028,6 45 0,0
21.06.2018 21:00:00 12,4 6,7 - - 8 4 - - E 1028,1 35 0,0
21.06.2018 20:00:00 14,3 6,7 - - 11 6 - - E 1027,9 50 0,0
21.06.2018 19:00:00 14,8 6,4 - - 16 9 - - E 1027,7 35 0,0
21.06.2018 18:00:00 15,1 7,2 - - 18 10 - - E 1027,6 30 0,0
21.06.2018 17:00:00 15,2 7,0 - - 21 11 - - E 1027,3 45 0,0
21.06.2018 16:00:00 14,3 6,8 - - 29 16 - - E 1026,9 10 0,0
21.06.2018 15:00:00 18,9 6,4 - - 22 12 - - N 1026,4 40 0,0
21.06.2018 14:00:00 16,3 3,9 - - 22 12 - - NNW 1026,1 40 0,0
21.06.2018 13:00:00 16,0 4,5 - - 18 10 - - NNW 1025,8 10 0,0
21.06.2018 12:00:00 15,7 5,6 - - 34 18 - - N 1025,3 10 0,0
21.06.2018 11:00:00 14,2 4,4 - - 28 15 - - N 1024,7 50 0,0
21.06.2018 10:00:00 14,2 5,6 16,2 14,2 35 19 48 26 N 1023,7 26 0,0
21.06.2018 09:00:00 13,4 5,6 - - 35 19 52 28 NW 1023,0 40 0,0
21.06.2018 08:00:00 12,2 5,1 - - 39 21 54 29 NW 1022,3 30 0,0
21.06.2018 07:00:00 11,2 5,7 - - 26 14 - - WNW 1021,8 40 0,0
21.06.2018 06:00:00 10,3 6,2 - - 16 9 - - WNW 1021,4 45 0,0
21.06.2018 05:00:00 9,4 6,4 - - 15 8 - - W 1020,9 45 0,0
21.06.2018 04:00:00 9,8 6,0 - - 16 9 - - WNW 1020,8 45 0,0
21.06.2018 03:00:00 10,9 5,6 - - 15 8 - - WNW 1020,7 45 0,0
21.06.2018 02:00:00 12,3 5,0 - - 28 15 - - NW 1020,3 40 0,0
21.06.2018 01:00:00 12,9 5,6 - - 22 12 - - WNW 1019,8 50 0,0
21.06.2018 00:00:00 13,3 7,1 - - 16 9 - - WNW 1019,6 35 0,0
20.06.2018 23:00:00 14,6 8,1 - - 26 14 - - NW 1019,4 10 0,0
20.06.2018 22:00:00 14,7 11,0 - - 8 4 - - N 1019,2 45 0,0
20.06.2018 21:00:00 17,1 10,0 - - 16 9 - - NE 1018,3 10 0,0
20.06.2018 20:00:00 18,6 11,8 - - 22 12 - - NW 1017,8 10 0,0
20.06.2018 19:00:00 20,0 13,6 - - 28 15 - - NW 1017,4 10 0,0
20.06.2018 18:00:00 21,8 14,3 - - 34 18 46 25 NW 1017,0 10 0,0
20.06.2018 17:00:00 22,8 14,2 - - 24 13 - - W 1016,7 10 0,0
20.06.2018 16:00:00 23,1 14,4 - - 24 13 54 29 W 1016,7 10 0,0
20.06.2018 15:00:00 23,9 15,8 - - 37 20 55 30 WSW 1016,8 50 0,0
20.06.2018 14:00:00 22,0 17,1 - - 39 21 50 27 W 1017,2 10 0,0
20.06.2018 13:00:00 22,6 16,4 - - 31 17 54 29 W 1017,2 40 0,0
20.06.2018 12:00:00 22,3 15,5 - - 34 18 50 27 WSW 1017,1 10 0,0
20.06.2018 11:00:00 22,1 15,6 - - 35 19 52 28 WSW 1017,4 50 0,0
20.06.2018 10:00:00 21,2 15,9 16,7 14,0 31 17 54 29 SW 1017,5 30 0,0
20.06.2018 09:00:00 20,4 15,9 - - 35 19 50 27 SW 1017,7 45 0,0
20.06.2018 08:00:00 18,8 14,9 - - 35 19 52 28 SW 1017,8 30 0,0
20.06.2018 07:00:00 17,3 14,6 - - 31 17 - - SW 1018,3 50 0,0
20.06.2018 06:00:00 15,6 14,6 - - 24 13 - - SW 1018,6 35 0,0
20.06.2018 05:00:00 15,0 14,2 - - 24 13 - - SSW 1018,6 25 0,0
20.06.2018 04:00:00 15,1 14,2 - - 21 11 - - SW 1018,7 26 0,0
20.06.2018 03:00:00 15,4 14,4 - - 22 12 - - SSW 1019,0 29 0,0
20.06.2018 02:00:00 16,0 14,6 - - 18 10 - - SW 1019,6 45 0,0
20.06.2018 01:00:00 16,8 15,0 - - 21 11 - - SW 1019,9 50 0,0
20.06.2018 00:00:00 17,7 15,4 - - 24 13 - - SW 1020,1 50 0,0
19.06.2018 23:00:00 18,4 15,8 - - 21 11 - - SW 1020,2 45 0,0
19.06.2018 22:00:00 19,0 16,0 - - 18 10 - - SW 1020,2 50 0,0
19.06.2018 21:00:00 20,2 15,9 - - 16 9 - - SW 1019,9 50 0,0
19.06.2018 20:00:00 22,7 16,0 - - 28 15 - - WSW 1020,0 35 0,0
19.06.2018 19:00:00 23,4 16,2 - - 24 13 - - WSW 1020,0 40 0,0
19.06.2018 18:00:00 22,7 16,4 - - 22 12 - - WSW 1020,0 40 0,0
19.06.2018 17:00:00 23,8 16,5 - - 26 14 - - SW 1020,0 35 0,0
19.06.2018 16:00:00 23,0 16,3 - - 29 16 - - SW 1020,4 40 0,0

tt = temperature
td = dewpoint
tt -20cm = temperature -20cm
tt -100cm = temperature -100cm
ff = wind speed
fx = gusts
dd = wind direction
ppp = reduced air pressure
vv = visibility
rr = precipitation

Next stations